Location: Ash Swamp
(41.5170°N, 74.6157°W)
Time: 16:56:30
(UTC+00:00)

SeaSat 1 - Pass Details

Date: 14 July 2020
Orbit: 744 x 747 km, 108.0° (Epoch: 04 August)

Event Time Altitude Azimuth Distance (km) Brightness Sun altitude
Rises 05:38:06 0° 43° (NE) 3,197 6.5 -26.4°
Reaches altitude 10° 05:41:07 10° 63° (ENE) 2,268 5.4 -26.3°
Enters shadow 05:44:20 18° 104° (ESE) 1,801 4.4 -26.2°
